When you browse on this site, cookies collect data to enhance your experience and personalize the content and advertising you see.
Visit our Privacy Policy to learn more. By continuing to use the site, you agree to this use of cookies and data.
EN

Hourly Weather Kalemie

Today, 16 July, Thursday

Time Temperature Precipitation Wind Pressure Humidity
00:00 +20°C° 0.1 mm 0 mps 707 mmHg 95%
01:00 +19°C° 0.1 mm 0 mps 706 mmHg 95%
02:00 +19°C° 0.1 mm 0 mps 706 mmHg 95%
03:00 +19°C° 0.1 mm 0 mps 706 mmHg 95%
04:00 +21°C° 0.1 mm 1 mps 706 mmHg 95%
05:00 +21°C° 0.1 mm 1 mps 706 mmHg 95%
06:00 +22°C° 0.1 mm 1 mps 706 mmHg 93%
07:00 +23°C° 0.1 mm 1 mps 707 mmHg 92%
08:00 +21°C° 0.1 mm 0 mps 708 mmHg 90%
09:00 +24°C° 0.1 mm 1 mps 708 mmHg 86%
10:00 +25°C° 0.1 mm 1 mps 708 mmHg 83%
11:00 +26°C° 0.1 mm 1 mps 708 mmHg 79%
12:00 +27°C° 0.5 mm 1 mps 707 mmHg 76%
13:00 +27°C° 0.5 mm 2 mps 707 mmHg 74%
14:00 +28°C° 0.5 mm 2 mps 706 mmHg 71%
15:00 +28°C° 0 mm 2 mps 706 mmHg 72%
16:00 +27°C° 0 mm 1 mps 706 mmHg 73%
17:00 +27°C° 0 mm 1 mps 705 mmHg 73%
18:00 +26°C° 0 mm 1 mps 706 mmHg 79%
19:00 +24°C° 0 mm 1 mps 706 mmHg 85%
20:00 +21°C° 0 mm 0 mps 706 mmHg 91%
21:00 +20°C° 0 mm 0 mps 706 mmHg 92%
22:00 +20°C° 0 mm 0 mps 707 mmHg 93%
23:00 +20°C° 0 mm 0 mps 707 mmHg 94%

Tomorrow, 17 July, Friday

Time Temperature Precipitation Wind Pressure Humidity
00:00 +20°C° 0 mm 0 mps 707 mmHg 94%
01:00 +19°C° 0 mm 0 mps 706 mmHg 94%
02:00 +21°C° 0 mm 1 mps 706 mmHg 94%
03:00 +19°C° 0 mm 0 mps 706 mmHg 94%
04:00 +19°C° 0 mm 0 mps 706 mmHg 94%
05:00 +19°C° 0 mm 0 mps 706 mmHg 94%
06:00 +22°C° 0 mm 1 mps 706 mmHg 90%
07:00 +23°C° 0 mm 1 mps 707 mmHg 86%
08:00 +25°C° 0 mm 1 mps 707 mmHg 82%
09:00 +26°C° 0.5 mm 1 mps 707 mmHg 79%
10:00 +28°C° 0.5 mm 1 mps 707 mmHg 76%
11:00 +29°C° 0.5 mm 1 mps 707 mmHg 72%
12:00 +29°C° 1.8 mm 1 mps 707 mmHg 74%
13:00 +29°C° 1.8 mm 1 mps 706 mmHg 76%
14:00 +29°C° 1.8 mm 1 mps 705 mmHg 78%
15:00 +28°C° 1.8 mm 1 mps 705 mmHg 82%
16:00 +27°C° 1.8 mm 1 mps 705 mmHg 86%
17:00 +27°C° 1.8 mm 1 mps 704 mmHg 90%
18:00 +23°C° 1.2 mm 0 mps 705 mmHg 91%
19:00 +22°C° 1.2 mm 0 mps 705 mmHg 92%
20:00 +21°C° 1.2 mm 0 mps 706 mmHg 93%
21:00 +21°C° 0.3 mm 0 mps 706 mmHg 94%
22:00 +23°C° 0.3 mm 1 mps 706 mmHg 95%
23:00 +22°C° 0.3 mm 1 mps 706 mmHg 96%

Day after tomorrow, 18 July, Saturday

Time Temperature Precipitation Wind Pressure Humidity
00:00 +22°C° 0.2 mm 1 mps 706 mmHg 97%
01:00 +22°C° 0.2 mm 1 mps 706 mmHg 97%
02:00 +22°C° 0.2 mm 1 mps 705 mmHg 98%
03:00 +22°C° 0 mm 1 mps 705 mmHg 98%
04:00 +22°C° 0 mm 1 mps 705 mmHg 98%
05:00 +21°C° 0 mm 2 mps 705 mmHg 98%
06:00 +21°C° 0 mm 2 mps 706 mmHg 97%
07:00 +23°C° 0 mm 2 mps 707 mmHg 96%
08:00 +23°C° 0 mm 2 mps 707 mmHg 94%
09:00 +24°C° 0.3 mm 2 mps 707 mmHg 91%
10:00 +25°C° 0.3 mm 2 mps 707 mmHg 87%
11:00 +25°C° 0.3 mm 3 mps 707 mmHg 84%
12:00 +26°C° 1.3 mm 3 mps 706 mmHg 84%
13:00 +27°C° 1.3 mm 2 mps 706 mmHg 85%
14:00 +27°C° 1.3 mm 2 mps 705 mmHg 85%
15:00 +26°C° 1.9 mm 2 mps 705 mmHg 88%
16:00 +25°C° 1.9 mm 2 mps 705 mmHg 91%
17:00 +24°C° 1.9 mm 2 mps 704 mmHg 94%
18:00 +24°C° 2.7 mm 2 mps 705 mmHg 95%
19:00 +23°C° 2.7 mm 2 mps 705 mmHg 96%
20:00 +23°C° 2.7 mm 2 mps 706 mmHg 97%
21:00 +21°C° 2.4 mm 2 mps 706 mmHg 97%
22:00 +21°C° 2.4 mm 2 mps 706 mmHg 98%
23:00 +21°C° 2.4 mm 3 mps 706 mmHg 98%

19 July, Sunday

Time Temperature Precipitation Wind Pressure Humidity
00:00 +21°C° 0.9 mm 3 mps 706 mmHg 98%
01:00 +20°C° 0.9 mm 2 mps 706 mmHg 97%
02:00 +20°C° 0.9 mm 2 mps 705 mmHg 97%
03:00 +20°C° 0.4 mm 2 mps 705 mmHg 97%
04:00 +20°C° 0.4 mm 2 mps 705 mmHg 97%
05:00 +19°C° 0.4 mm 2 mps 705 mmHg 97%
06:00 +20°C° 0.5 mm 2 mps 706 mmHg 97%
07:00 +20°C° 0.5 mm 2 mps 707 mmHg 97%
08:00 +20°C° 0.5 mm 2 mps 707 mmHg 97%
09:00 +20°C° 0.2 mm 2 mps 707 mmHg 96%
10:00 +21°C° 0.2 mm 2 mps 707 mmHg 96%
11:00 +21°C° 0.2 mm 2 mps 707 mmHg 95%
12:00 +23°C° 0.2 mm 2 mps 707 mmHg 94%
13:00 +23°C° 0.2 mm 2 mps 706 mmHg 93%
14:00 +23°C° 0.2 mm 1 mps 706 mmHg 91%
15:00 +23°C° 0.3 mm 1 mps 706 mmHg 91%
16:00 +24°C° 0.3 mm 1 mps 706 mmHg 90%
17:00 +24°C° 0.3 mm 1 mps 705 mmHg 89%
18:00 +21°C° 0.1 mm 0 mps 706 mmHg 91%
19:00 +20°C° 0.1 mm 0 mps 706 mmHg 93%
20:00 +20°C° 0.1 mm 0 mps 706 mmHg 95%
21:00 +19°C° 0 mm 0 mps 706 mmHg 96%
22:00 +21°C° 0 mm 1 mps 706 mmHg 96%
23:00 +21°C° 0 mm 1 mps 706 mmHg 96%

20 July, Monday

Time Temperature Precipitation Wind Pressure Humidity
00:00 +21°C° 0 mm 1 mps 706 mmHg 96%
01:00 +21°C° 0 mm 1 mps 705 mmHg 95%
02:00 +21°C° 0 mm 1 mps 705 mmHg 94%
03:00 +21°C° 0.1 mm 1 mps 705 mmHg 94%
04:00 +21°C° 0.1 mm 1 mps 706 mmHg 95%
05:00 +21°C° 0.1 mm 1 mps 706 mmHg 95%
06:00 +21°C° 0 mm 1 mps 706 mmHg 94%
07:00 +22°C° 0 mm 1 mps 707 mmHg 93%
08:00 +22°C° 0 mm 1 mps 708 mmHg 92%
09:00 +23°C° 0.2 mm 1 mps 708 mmHg 90%
10:00 +24°C° 0.2 mm 1 mps 708 mmHg 88%
11:00 +25°C° 0.2 mm 1 mps 708 mmHg 86%
12:00 +26°C° 1.1 mm 1 mps 707 mmHg 85%
13:00 +26°C° 1.1 mm 1 mps 707 mmHg 84%
14:00 +27°C° 1.1 mm 1 mps 706 mmHg 82%
15:00 +27°C° 0.8 mm 1 mps 706 mmHg 84%
16:00 +26°C° 0.8 mm 1 mps 706 mmHg 86%
17:00 +26°C° 0.8 mm 1 mps 705 mmHg 88%
18:00 +25°C° 0.4 mm 1 mps 706 mmHg 91%
19:00 +23°C° 0.4 mm 1 mps 706 mmHg 94%
20:00 +22°C° 0.4 mm 1 mps 706 mmHg 97%
21:00 +22°C° 0.1 mm 1 mps 707 mmHg 97%
22:00 +22°C° 0.1 mm 1 mps 707 mmHg 97%
23:00 +20°C° 0.1 mm 0 mps 707 mmHg 97%

21 July, Tuesday

Time Temperature Precipitation Wind Pressure Humidity
00:00 +21°C° 0 mm 1 mps 706 mmHg 97%
01:00 +21°C° 0 mm 1 mps 706 mmHg 97%
02:00 +21°C° 0 mm 1 mps 706 mmHg 97%
03:00 +21°C° 0 mm 1 mps 706 mmHg 97%
04:00 +21°C° 0 mm 1 mps 706 mmHg 97%
05:00 +21°C° 0 mm 1 mps 706 mmHg 97%
06:00 +21°C° 0 mm 1 mps 706 mmHg 96%
07:00 +22°C° 0 mm 1 mps 707 mmHg 96%
08:00 +20°C° 0 mm 0 mps 708 mmHg 95%
09:00 +20°C° 0.1 mm 0 mps 708 mmHg 95%
10:00 +21°C° 0.1 mm 0 mps 708 mmHg 94%
11:00 +21°C° 0.1 mm 0 mps 708 mmHg 94%
12:00 +24°C° 0.3 mm 1 mps 707 mmHg 90%
13:00 +25°C° 0.3 mm 1 mps 706 mmHg 85%
14:00 +26°C° 0.3 mm 1 mps 706 mmHg 81%
15:00 +26°C° 0.2 mm 1 mps 706 mmHg 82%
16:00 +26°C° 0.2 mm 1 mps 705 mmHg 83%
17:00 +26°C° 0.2 mm 1 mps 705 mmHg 84%
18:00 +25°C° 0.1 mm 1 mps 705 mmHg 88%
19:00 +24°C° 0.1 mm 1 mps 706 mmHg 92%
20:00 +20°C° 0.1 mm 0 mps 706 mmHg 96%
21:00 +20°C° 0.3 mm 0 mps 706 mmHg 96%
22:00 +20°C° 0.3 mm 0 mps 706 mmHg 96%
23:00 +20°C° 0.3 mm 0 mps 706 mmHg 97%
Show more